PRVDJ SBRJ-SBJD

Flight info

Callsign PRVDJ
Flight time 1h 22m
Altitude 10000
Route SIDUR Z10 EDMUS DCT 2306S04634W/N0170A045 VFR REA 2307S04645W DCT
Aircraft SR22/L-SDGRY/S

Departure

Time 2026-05-06 18:07
Airport Santos Dumont Airport (SBRJ)

Arrival

Time 2026-05-06 19:30
Airport Comte. Rolim Adolfo Amaro–Jundiaí State Airport (SBJD)
Time Latitude Longitude Altitude Speed Heading
2026-05-06 17:50 -22.90655 -43.16475 22 ft 0 kts 176°
2026-05-06 18:02 -22.90656 -43.16475 22 ft 0 kts 172°
2026-05-06 18:02 -22.90667 -43.16473 22 ft 2 kts 173°
2026-05-06 18:02 -22.90673 -43.16464 22 ft 1 kts 79°
2026-05-06 18:03 -22.90637 -43.16463 22 ft 4 kts 340°
2026-05-06 18:03 -22.90631 -43.16494 22 ft 4 kts 267°
2026-05-06 18:03 -22.90631 -43.16544 23 ft 6 kts 295°
2026-05-06 18:03 -22.90589 -43.16561 23 ft 7 kts 359°
2026-05-06 18:04 -22.90522 -43.16564 23 ft 11 kts 358°
2026-05-06 18:04 -22.90491 -43.16515 23 ft 7 kts 90°
2026-05-06 18:04 -22.90489 -43.16490 23 ft 0 kts 88°
2026-05-06 18:05 -22.90489 -43.16489 23 ft 0 kts 92°
2026-05-06 18:06 -22.90489 -43.16482 23 ft 3 kts 88°
2026-05-06 18:06 -22.90489 -43.16426 23 ft 10 kts 83°
2026-05-06 18:06 -22.90472 -43.16360 24 ft 5 kts 70°
2026-05-06 18:06 -22.90487 -43.16328 23 ft 6 kts 170°
2026-05-06 18:07 -22.90763 -43.16310 22 ft 71 kts 175°
2026-05-06 18:07 -22.91327 -43.16269 233 ft 83 kts 172°
2026-05-06 18:07 -22.91911 -43.16145 448 ft 91 kts 148°
2026-05-06 18:07 -22.92410 -43.15668 638 ft 102 kts 135°
2026-05-06 18:08 -22.92954 -43.15142 898 ft 106 kts 137°
2026-05-06 18:08 -22.93525 -43.14659 1179 ft 107 kts 141°
2026-05-06 18:08 -22.94154 -43.14204 1453 ft 108 kts 145°
2026-05-06 18:08 -22.94791 -43.13791 1747 ft 106 kts 143°
2026-05-06 18:09 -22.95411 -43.13376 2038 ft 103 kts 143°
2026-05-06 18:09 -22.96014 -43.12976 2325 ft 100 kts 143°
2026-05-06 18:09 -22.96603 -43.12592 2597 ft 100 kts 143°
2026-05-06 18:09 -22.97241 -43.12263 2837 ft 105 kts 167°
2026-05-06 18:10 -22.97978 -43.12340 3077 ft 108 kts 189°
2026-05-06 18:10 -22.98710 -43.12533 3344 ft 109 kts 191°
2026-05-06 18:10 -22.99439 -43.12746 3612 ft 108 kts 192°
2026-05-06 18:10 -23.00170 -43.12968 3863 ft 109 kts 193°
2026-05-06 18:11 -23.00900 -43.13197 4092 ft 111 kts 193°
2026-05-06 18:11 -23.01674 -43.13439 4277 ft 118 kts 194°
2026-05-06 18:11 -23.02487 -43.13697 4489 ft 122 kts 193°
2026-05-06 18:11 -23.03304 -43.13957 4725 ft 123 kts 194°
2026-05-06 18:12 -23.04125 -43.14219 4954 ft 122 kts 195°
2026-05-06 18:12 -23.04938 -43.14487 5177 ft 125 kts 202°
2026-05-06 18:12 -23.05536 -43.15142 5398 ft 124 kts 249°
2026-05-06 18:12 -23.05571 -43.16043 5616 ft 119 kts 293°
2026-05-06 18:13 -23.05122 -43.16770 5830 ft 117 kts 314°
2026-05-06 18:13 -23.04582 -43.17430 6048 ft 117 kts 316°
2026-05-06 18:13 -23.04032 -43.18090 6271 ft 117 kts 316°
2026-05-06 18:13 -23.03475 -43.18750 6478 ft 118 kts 316°
2026-05-06 18:14 -23.02921 -43.19407 6685 ft 119 kts 316°
2026-05-06 18:14 -23.02360 -43.20073 6900 ft 120 kts 316°
2026-05-06 18:14 -23.01788 -43.20749 7100 ft 120 kts 316°
2026-05-06 18:14 -23.01222 -43.21417 7299 ft 120 kts 316°
2026-05-06 18:15 -23.00656 -43.22086 7495 ft 120 kts 315°
2026-05-06 18:15 -23.00091 -43.22753 7684 ft 121 kts 316°
2026-05-06 18:15 -22.99519 -43.23432 7875 ft 121 kts 315°
2026-05-06 18:15 -22.98955 -43.24099 8058 ft 121 kts 315°
2026-05-06 18:16 -22.98383 -43.24773 8234 ft 122 kts 315°
2026-05-06 18:16 -22.97805 -43.25459 8412 ft 122 kts 315°
2026-05-06 18:16 -22.97227 -43.26144 8596 ft 123 kts 315°
2026-05-06 18:16 -22.96647 -43.26828 8754 ft 124 kts 315°
2026-05-06 18:17 -22.96064 -43.27516 8930 ft 124 kts 314°
2026-05-06 18:17 -22.95473 -43.28215 9096 ft 125 kts 315°
2026-05-06 18:17 -22.94885 -43.28911 9257 ft 126 kts 315°
2026-05-06 18:17 -22.94287 -43.29618 9438 ft 125 kts 315°
2026-05-06 18:18 -22.93696 -43.30314 9612 ft 125 kts 315°
2026-05-06 18:18 -22.93116 -43.31002 9773 ft 125 kts 314°
2026-05-06 18:18 -22.92526 -43.31697 9932 ft 125 kts 314°
2026-05-06 18:18 -22.91919 -43.32414 10001 ft 133 kts 315°
2026-05-06 18:19 -22.91278 -43.33178 10100 ft 138 kts 313°
2026-05-06 18:19 -22.90615 -43.33990 10116 ft 149 kts 313°
2026-05-06 18:19 -22.89908 -43.34858 10118 ft 157 kts 314°
2026-05-06 18:19 -22.89160 -43.35776 10112 ft 164 kts 313°
2026-05-06 18:20 -22.88387 -43.36723 10112 ft 170 kts 313°
2026-05-06 18:20 -22.87587 -43.37704 10118 ft 176 kts 313°
2026-05-06 18:20 -22.86771 -43.38708 10115 ft 180 kts 313°
2026-05-06 18:20 -22.85930 -43.39738 10112 ft 183 kts 313°
2026-05-06 18:21 -22.85083 -43.40777 10108 ft 185 kts 313°
2026-05-06 18:21 -22.84233 -43.41821 10108 ft 186 kts 314°
2026-05-06 18:21 -22.83378 -43.42871 10108 ft 186 kts 314°
2026-05-06 18:21 -22.82503 -43.43941 10110 ft 187 kts 314°
2026-05-06 18:22 -22.81643 -43.44994 10110 ft 187 kts 313°
2026-05-06 18:22 -22.80789 -43.46041 10109 ft 187 kts 313°
2026-05-06 18:22 -22.79920 -43.47104 10108 ft 187 kts 313°
2026-05-06 18:22 -22.79057 -43.48163 10108 ft 187 kts 313°
2026-05-06 18:23 -22.78187 -43.49229 10116 ft 187 kts 313°
2026-05-06 18:23 -22.77322 -43.50286 10117 ft 188 kts 313°
2026-05-06 18:23 -22.76457 -43.51347 10112 ft 189 kts 313°
2026-05-06 18:23 -22.75584 -43.52415 10110 ft 189 kts 313°
2026-05-06 18:24 -22.74717 -43.53476 10111 ft 189 kts 313°
2026-05-06 18:24 -22.73837 -43.54554 10115 ft 189 kts 313°
2026-05-06 18:24 -22.72975 -43.55608 10136 ft 189 kts 314°
2026-05-06 18:24 -22.72090 -43.56689 10116 ft 190 kts 314°
2026-05-06 18:25 -22.71210 -43.57763 10101 ft 189 kts 313°
2026-05-06 18:25 -22.70350 -43.58815 10125 ft 187 kts 313°
2026-05-06 18:25 -22.69479 -43.59882 10133 ft 188 kts 313°
2026-05-06 18:25 -22.68608 -43.60943 10129 ft 188 kts 313°
2026-05-06 18:26 -22.67742 -43.62001 10137 ft 189 kts 314°
2026-05-06 18:26 -22.66865 -43.63068 10137 ft 188 kts 314°
2026-05-06 18:26 -22.65996 -43.64124 10136 ft 189 kts 313°
2026-05-06 18:26 -22.65118 -43.65192 10151 ft 189 kts 313°
2026-05-06 18:27 -22.64241 -43.66262 10138 ft 190 kts 313°
2026-05-06 18:27 -22.63414 -43.67377 10136 ft 191 kts 298°
2026-05-06 18:27 -22.63281 -43.68785 10150 ft 193 kts 263°
2026-05-06 18:27 -22.63557 -43.70220 10137 ft 193 kts 258°
2026-05-06 18:28 -22.63873 -43.71616 10145 ft 193 kts 257°
2026-05-06 18:28 -22.64197 -43.73020 10147 ft 193 kts 257°
2026-05-06 18:28 -22.64523 -43.74430 10150 ft 193 kts 257°
2026-05-06 18:28 -22.64854 -43.75862 10149 ft 194 kts 257°
2026-05-06 18:29 -22.65179 -43.77269 10143 ft 194 kts 257°
2026-05-06 18:29 -22.65508 -43.78690 10143 ft 193 kts 257°
2026-05-06 18:29 -22.65833 -43.80092 10150 ft 193 kts 257°
2026-05-06 18:29 -22.66162 -43.81511 10154 ft 194 kts 257°
2026-05-06 18:30 -22.66488 -43.82927 10147 ft 194 kts 257°
2026-05-06 18:30 -22.66816 -43.84344 10146 ft 194 kts 257°
2026-05-06 18:30 -22.67142 -43.85749 10144 ft 194 kts 257°
2026-05-06 18:30 -22.67469 -43.87159 10152 ft 193 kts 257°
2026-05-06 18:31 -22.67796 -43.88573 10152 ft 194 kts 257°
2026-05-06 18:31 -22.68125 -43.89993 10146 ft 194 kts 257°
2026-05-06 18:31 -22.68455 -43.91421 10143 ft 194 kts 257°
2026-05-06 18:31 -22.68781 -43.92838 10145 ft 194 kts 257°
2026-05-06 18:32 -22.69104 -43.94237 10148 ft 194 kts 257°
2026-05-06 18:32 -22.69432 -43.95660 10152 ft 193 kts 257°
2026-05-06 18:32 -22.69757 -43.97073 10158 ft 193 kts 257°
2026-05-06 18:32 -22.70085 -43.98497 10156 ft 194 kts 257°
2026-05-06 18:33 -22.70408 -43.99904 10160 ft 194 kts 257°
2026-05-06 18:33 -22.70733 -44.01314 10157 ft 193 kts 257°
2026-05-06 18:33 -22.71057 -44.02721 10162 ft 193 kts 257°
2026-05-06 18:33 -22.71384 -44.04139 10173 ft 192 kts 257°
2026-05-06 18:34 -22.71704 -44.05528 10191 ft 193 kts 257°
2026-05-06 18:34 -22.72030 -44.06942 10191 ft 194 kts 257°
2026-05-06 18:34 -22.72357 -44.08370 10191 ft 194 kts 257°
2026-05-06 18:34 -22.72681 -44.09778 10197 ft 194 kts 257°
2026-05-06 18:35 -22.73006 -44.11195 10209 ft 194 kts 257°
2026-05-06 18:35 -22.73332 -44.12613 10219 ft 194 kts 257°
2026-05-06 18:35 -22.73656 -44.14028 10228 ft 194 kts 257°
2026-05-06 18:35 -22.73978 -44.15438 10232 ft 194 kts 257°
2026-05-06 18:36 -22.74304 -44.16859 10236 ft 194 kts 257°
2026-05-06 18:36 -22.74631 -44.18291 10249 ft 194 kts 257°
2026-05-06 18:36 -22.74953 -44.19695 10254 ft 194 kts 257°
2026-05-06 18:36 -22.75279 -44.21122 10259 ft 194 kts 257°
2026-05-06 18:37 -22.75696 -44.22504 10263 ft 194 kts 249°
2026-05-06 18:37 -22.76203 -44.23856 10262 ft 194 kts 248°
2026-05-06 18:37 -22.76714 -44.25204 10261 ft 194 kts 248°
2026-05-06 18:37 -22.77228 -44.26561 10261 ft 194 kts 248°
2026-05-06 18:38 -22.77737 -44.27908 10258 ft 194 kts 248°
2026-05-06 18:38 -22.78252 -44.29272 10260 ft 194 kts 248°
2026-05-06 18:38 -22.78759 -44.30619 10261 ft 194 kts 248°
2026-05-06 18:38 -22.79273 -44.31984 10258 ft 195 kts 249°
2026-05-06 18:39 -22.79780 -44.33333 10257 ft 194 kts 249°
2026-05-06 18:39 -22.80294 -44.34700 10252 ft 195 kts 248°
2026-05-06 18:39 -22.80801 -44.36049 10254 ft 194 kts 248°
2026-05-06 18:40 -22.81822 -44.38767 10249 ft 195 kts 248°
2026-05-06 18:40 -22.82332 -44.40125 10250 ft 195 kts 248°
2026-05-06 18:40 -22.82847 -44.41495 10244 ft 194 kts 248°
2026-05-06 18:40 -22.83351 -44.42837 10241 ft 194 kts 248°
2026-05-06 18:41 -22.83861 -44.44195 10244 ft 194 kts 248°
2026-05-06 18:41 -22.84374 -44.45564 10244 ft 194 kts 248°
2026-05-06 18:41 -22.84878 -44.46906 10241 ft 194 kts 248°
2026-05-06 18:41 -22.85389 -44.48270 10240 ft 194 kts 249°
2026-05-06 18:42 -22.85900 -44.49631 10233 ft 194 kts 249°
2026-05-06 18:42 -22.86405 -44.50981 10232 ft 194 kts 249°
2026-05-06 18:42 -22.86912 -44.52334 10241 ft 194 kts 248°
2026-05-06 18:42 -22.87418 -44.53687 10239 ft 194 kts 248°
2026-05-06 18:43 -22.87928 -44.55049 10246 ft 194 kts 248°
2026-05-06 18:43 -22.88433 -44.56398 10249 ft 194 kts 248°
2026-05-06 18:43 -22.88946 -44.57769 10250 ft 195 kts 248°
2026-05-06 18:43 -22.89448 -44.59112 10248 ft 194 kts 248°
2026-05-06 18:44 -22.89964 -44.60489 10253 ft 194 kts 248°
2026-05-06 18:44 -22.90465 -44.61831 10254 ft 194 kts 248°
2026-05-06 18:44 -22.90977 -44.63200 10259 ft 194 kts 248°
2026-05-06 18:44 -22.91481 -44.64549 10259 ft 194 kts 249°
2026-05-06 18:45 -22.91985 -44.65898 10259 ft 194 kts 249°
2026-05-06 18:45 -22.92497 -44.67270 10267 ft 193 kts 249°
2026-05-06 18:45 -22.92954 -44.68490 10272 ft 194 kts 249°
2026-05-06 18:45 -22.93428 -44.69763 10279 ft 194 kts 249°
2026-05-06 18:46 -22.93928 -44.71102 10278 ft 195 kts 249°
2026-05-06 18:46 -22.94434 -44.72464 10281 ft 195 kts 249°
2026-05-06 18:46 -22.94943 -44.73828 10285 ft 194 kts 249°
2026-05-06 18:46 -22.95452 -44.75193 10288 ft 194 kts 249°
2026-05-06 18:47 -22.95956 -44.76547 10285 ft 194 kts 249°
2026-05-06 18:47 -22.96464 -44.77911 10275 ft 194 kts 249°
2026-05-06 18:47 -22.96964 -44.79255 10278 ft 193 kts 248°
2026-05-06 18:47 -22.97471 -44.80613 10273 ft 193 kts 249°
2026-05-06 18:48 -22.97975 -44.81963 10272 ft 194 kts 249°
2026-05-06 18:48 -22.98477 -44.83315 10271 ft 194 kts 249°
2026-05-06 18:48 -22.98986 -44.84684 10268 ft 194 kts 249°
2026-05-06 18:48 -22.99494 -44.86048 10264 ft 194 kts 249°
2026-05-06 18:49 -22.99997 -44.87403 10261 ft 195 kts 249°
2026-05-06 18:49 -23.00501 -44.88762 10261 ft 194 kts 249°
2026-05-06 18:49 -23.01009 -44.90128 10255 ft 195 kts 249°
2026-05-06 18:49 -23.01513 -44.91487 10253 ft 195 kts 249°
2026-05-06 18:50 -23.02018 -44.92847 10251 ft 195 kts 249°
2026-05-06 18:50 -23.02524 -44.94212 10253 ft 194 kts 249°
2026-05-06 18:50 -23.03029 -44.95570 10247 ft 194 kts 249°
2026-05-06 18:50 -23.03535 -44.96938 10249 ft 194 kts 249°
2026-05-06 18:51 -23.04041 -44.98300 10245 ft 194 kts 249°
2026-05-06 18:51 -23.04545 -44.99664 10242 ft 194 kts 249°
2026-05-06 18:51 -23.05045 -45.01012 10248 ft 194 kts 249°
2026-05-06 18:51 -23.05551 -45.02375 10252 ft 194 kts 249°
2026-05-06 18:52 -23.06050 -45.03722 10252 ft 194 kts 249°
2026-05-06 18:52 -23.06558 -45.05094 10254 ft 194 kts 249°
2026-05-06 18:52 -23.07057 -45.06442 10253 ft 194 kts 249°
2026-05-06 18:52 -23.07566 -45.07815 10251 ft 194 kts 249°
2026-05-06 18:53 -23.08068 -45.09175 10261 ft 194 kts 249°
2026-05-06 18:53 -23.08572 -45.10537 10260 ft 194 kts 249°
2026-05-06 18:53 -23.09071 -45.11888 10256 ft 195 kts 249°
2026-05-06 18:53 -23.09576 -45.13257 10262 ft 194 kts 249°
2026-05-06 18:54 -23.10078 -45.14618 10262 ft 194 kts 249°
2026-05-06 18:54 -23.10578 -45.15971 10263 ft 193 kts 249°
2026-05-06 18:54 -23.11083 -45.17338 10262 ft 193 kts 249°
2026-05-06 18:54 -23.11585 -45.18696 10260 ft 193 kts 249°
2026-05-06 18:55 -23.12082 -45.20040 10258 ft 194 kts 249°
2026-05-06 18:55 -23.12582 -45.21395 10257 ft 194 kts 249°
2026-05-06 18:55 -23.13085 -45.22757 10254 ft 194 kts 249°
2026-05-06 18:55 -23.13584 -45.24117 10253 ft 194 kts 249°
2026-05-06 18:56 -23.14083 -45.25472 10257 ft 194 kts 249°
2026-05-06 18:56 -23.14587 -45.26838 10252 ft 194 kts 249°
2026-05-06 18:56 -23.15084 -45.28189 10252 ft 194 kts 249°
2026-05-06 18:56 -23.15587 -45.29554 10243 ft 194 kts 249°
2026-05-06 18:57 -23.16088 -45.30913 10237 ft 194 kts 249°
2026-05-06 18:57 -23.16590 -45.32277 10237 ft 193 kts 249°
2026-05-06 18:57 -23.17089 -45.33634 10235 ft 193 kts 249°
2026-05-06 18:57 -23.17588 -45.34994 10241 ft 193 kts 249°
2026-05-06 18:58 -23.18086 -45.36346 10235 ft 194 kts 249°
2026-05-06 18:58 -23.18587 -45.37709 10231 ft 194 kts 249°
2026-05-06 18:58 -23.18915 -45.39118 10228 ft 192 kts 262°
2026-05-06 18:58 -23.19162 -45.40528 10232 ft 192 kts 261°
2026-05-06 18:59 -23.19416 -45.41948 10226 ft 192 kts 260°
2026-05-06 18:59 -23.19674 -45.43371 10222 ft 192 kts 260°
2026-05-06 18:59 -23.19932 -45.44800 10225 ft 192 kts 260°
2026-05-06 18:59 -23.20191 -45.46218 10219 ft 192 kts 260°
2026-05-06 19:00 -23.20451 -45.47651 10215 ft 192 kts 260°
2026-05-06 19:00 -23.20707 -45.49067 10228 ft 192 kts 260°
2026-05-06 19:00 -23.20962 -45.50491 10212 ft 193 kts 260°
2026-05-06 19:00 -23.21217 -45.51917 10204 ft 191 kts 260°
2026-05-06 19:01 -23.21472 -45.53344 10234 ft 191 kts 260°
2026-05-06 19:01 -23.21727 -45.54760 10236 ft 192 kts 261°
2026-05-06 19:01 -23.21983 -45.56193 10232 ft 192 kts 260°
2026-05-06 19:01 -23.22237 -45.57608 10220 ft 192 kts 260°
2026-05-06 19:02 -23.22495 -45.59037 10232 ft 192 kts 260°
2026-05-06 19:02 -23.22753 -45.60466 10224 ft 192 kts 260°
2026-05-06 19:02 -23.23014 -45.61886 10224 ft 192 kts 260°
2026-05-06 19:02 -23.23274 -45.63304 10233 ft 192 kts 260°
2026-05-06 19:03 -23.23533 -45.64728 10224 ft 192 kts 260°
2026-05-06 19:03 -23.23785 -45.66140 10225 ft 191 kts 260°
2026-05-06 19:03 -23.24042 -45.67577 10229 ft 191 kts 261°
2026-05-06 19:03 -23.24300 -45.69001 10234 ft 191 kts 261°
2026-05-06 19:04 -23.24557 -45.70410 10233 ft 192 kts 261°
2026-05-06 19:04 -23.24817 -45.71841 10235 ft 191 kts 261°
2026-05-06 19:04 -23.25073 -45.73246 10236 ft 192 kts 261°
2026-05-06 19:04 -23.25335 -45.74687 10238 ft 192 kts 261°
2026-05-06 19:05 -23.25590 -45.76112 10236 ft 192 kts 261°
2026-05-06 19:05 -23.25846 -45.77525 10230 ft 193 kts 261°
2026-05-06 19:05 -23.26105 -45.78962 10225 ft 192 kts 261°
2026-05-06 19:05 -23.26364 -45.80376 10220 ft 192 kts 261°
2026-05-06 19:06 -23.26619 -45.81785 10217 ft 191 kts 261°
2026-05-06 19:06 -23.26881 -45.83219 10221 ft 190 kts 261°
2026-05-06 19:06 -23.27136 -45.84631 10224 ft 190 kts 261°
2026-05-06 19:06 -23.27394 -45.86045 10224 ft 190 kts 261°
2026-05-06 19:07 -23.27647 -45.87442 10225 ft 191 kts 261°
2026-05-06 19:07 -23.27903 -45.88876 10221 ft 191 kts 261°
2026-05-06 19:07 -23.28158 -45.90295 10221 ft 191 kts 261°
2026-05-06 19:07 -23.28409 -45.91703 10223 ft 192 kts 261°
2026-05-06 19:08 -23.28662 -45.93122 10211 ft 192 kts 261°
2026-05-06 19:08 -23.28913 -45.94541 10214 ft 191 kts 261°
2026-05-06 19:08 -23.29170 -45.95972 10213 ft 191 kts 261°
2026-05-06 19:08 -23.29429 -45.97392 10214 ft 192 kts 261°
2026-05-06 19:09 -23.29684 -45.98801 10221 ft 192 kts 261°
2026-05-06 19:09 -23.29950 -46.00249 10206 ft 193 kts 260°
2026-05-06 19:09 -23.30208 -46.01671 10195 ft 192 kts 261°
2026-05-06 19:09 -23.30188 -46.03085 10207 ft 188 kts 284°
2026-05-06 19:10 -23.29876 -46.04467 10208 ft 189 kts 287°
2026-05-06 19:10 -23.29546 -46.05872 10205 ft 189 kts 287°
2026-05-06 19:10 -23.29215 -46.07248 10200 ft 189 kts 287°
2026-05-06 19:10 -23.28886 -46.08633 10204 ft 189 kts 287°
2026-05-06 19:11 -23.28556 -46.10027 10203 ft 189 kts 287°
2026-05-06 19:11 -23.28230 -46.11405 10198 ft 189 kts 287°
2026-05-06 19:11 -23.27906 -46.12777 10199 ft 188 kts 287°
2026-05-06 19:11 -23.27578 -46.14140 10215 ft 187 kts 286°
2026-05-06 19:12 -23.27247 -46.15512 10224 ft 188 kts 287°
2026-05-06 19:12 -23.26909 -46.16910 10218 ft 189 kts 287°
2026-05-06 19:12 -23.26581 -46.18277 10224 ft 190 kts 287°
2026-05-06 19:12 -23.26249 -46.19677 10221 ft 190 kts 287°
2026-05-06 19:13 -23.25911 -46.21074 10216 ft 190 kts 287°
2026-05-06 19:13 -23.25580 -46.22452 10215 ft 190 kts 287°
2026-05-06 19:13 -23.25252 -46.23839 10216 ft 189 kts 287°
2026-05-06 19:13 -23.24923 -46.25217 10224 ft 189 kts 287°
2026-05-06 19:14 -23.24590 -46.26609 10221 ft 189 kts 286°
2026-05-06 19:14 -23.24262 -46.27999 10221 ft 190 kts 287°
2026-05-06 19:14 -23.23934 -46.29388 10225 ft 190 kts 287°
2026-05-06 19:14 -23.23534 -46.30763 10225 ft 189 kts 294°
2026-05-06 19:15 -23.23041 -46.32088 10225 ft 189 kts 295°
2026-05-06 19:15 -23.22539 -46.33411 10220 ft 189 kts 295°
2026-05-06 19:15 -23.22045 -46.34718 10221 ft 189 kts 295°
2026-05-06 19:15 -23.21548 -46.36039 10224 ft 189 kts 295°
2026-05-06 19:16 -23.21044 -46.37371 10226 ft 189 kts 294°
2026-05-06 19:16 -23.20544 -46.38685 10220 ft 188 kts 295°
2026-05-06 19:16 -23.20049 -46.40001 10210 ft 188 kts 294°
2026-05-06 19:16 -23.19540 -46.41347 10096 ft 194 kts 295°
2026-05-06 19:17 -23.19034 -46.42691 9973 ft 193 kts 295°
2026-05-06 19:17 -23.18529 -46.44038 9839 ft 193 kts 295°
2026-05-06 19:17 -23.18019 -46.45392 9696 ft 193 kts 295°
2026-05-06 19:17 -23.17337 -46.46606 9552 ft 190 kts 313°
2026-05-06 19:18 -23.16454 -46.47678 9405 ft 189 kts 315°
2026-05-06 19:18 -23.15565 -46.48743 9263 ft 189 kts 315°
2026-05-06 19:18 -23.14683 -46.49797 9122 ft 189 kts 315°
2026-05-06 19:18 -23.13788 -46.50867 8974 ft 189 kts 315°
2026-05-06 19:19 -23.12902 -46.51926 8828 ft 189 kts 315°
2026-05-06 19:19 -23.12021 -46.52975 8687 ft 190 kts 315°
2026-05-06 19:19 -23.11124 -46.54048 8540 ft 190 kts 315°
2026-05-06 19:19 -23.10245 -46.55101 8392 ft 190 kts 314°
2026-05-06 19:20 -23.09355 -46.56156 8245 ft 190 kts 315°
2026-05-06 19:20 -23.08462 -46.57214 8098 ft 190 kts 315°
2026-05-06 19:20 -23.07640 -46.58347 7934 ft 193 kts 299°
2026-05-06 19:20 -23.07510 -46.59788 7771 ft 197 kts 263°
2026-05-06 19:21 -23.07755 -46.61257 7628 ft 197 kts 260°
2026-05-06 19:21 -23.08029 -46.62728 7481 ft 197 kts 260°
2026-05-06 19:21 -23.08299 -46.64163 7333 ft 196 kts 260°
2026-05-06 19:21 -23.08573 -46.65630 7179 ft 196 kts 261°
2026-05-06 19:22 -23.08849 -46.67088 7028 ft 196 kts 260°
2026-05-06 19:22 -23.09120 -46.68538 6878 ft 196 kts 261°
2026-05-06 19:22 -23.09390 -46.69978 6728 ft 194 kts 261°
2026-05-06 19:22 -23.09654 -46.71400 6578 ft 190 kts 261°
2026-05-06 19:23 -23.09908 -46.72787 6427 ft 188 kts 260°
2026-05-06 19:23 -23.10156 -46.74163 6280 ft 186 kts 260°
2026-05-06 19:23 -23.10401 -46.75539 6130 ft 185 kts 260°
2026-05-06 19:23 -23.10646 -46.76915 5983 ft 184 kts 260°
2026-05-06 19:24 -23.10888 -46.78276 5838 ft 182 kts 260°
2026-05-06 19:24 -23.11125 -46.79610 5696 ft 179 kts 260°
2026-05-06 19:24 -23.11360 -46.80938 5549 ft 177 kts 261°
2026-05-06 19:24 -23.11592 -46.82244 5406 ft 176 kts 260°
2026-05-06 19:25 -23.11821 -46.83538 5265 ft 175 kts 260°
2026-05-06 19:25 -23.12051 -46.84842 5117 ft 174 kts 261°
2026-05-06 19:25 -23.12275 -46.86118 4975 ft 174 kts 260°
2026-05-06 19:25 -23.12507 -46.87407 4839 ft 172 kts 258°
2026-05-06 19:26 -23.12854 -46.88612 4794 ft 162 kts 250°
2026-05-06 19:26 -23.13295 -46.89687 4789 ft 152 kts 244°
2026-05-06 19:26 -23.13907 -46.90586 4648 ft 141 kts 218°
2026-05-06 19:26 -23.14712 -46.91172 4431 ft 137 kts 205°
2026-05-06 19:27 -23.15639 -46.91271 4160 ft 136 kts 172°
2026-05-06 19:27 -23.16547 -46.91242 4028 ft 127 kts 184°
2026-05-06 19:27 -23.17321 -46.91641 3816 ft 128 kts 233°
2026-05-06 19:27 -23.17629 -46.92528 3614 ft 125 kts 271°
2026-05-06 19:28 -23.17247 -46.93224 3570 ft 100 kts 334°
2026-05-06 19:28 -23.16674 -46.93574 3450 ft 94 kts 331°
2026-05-06 19:28 -23.16145 -46.93996 3297 ft 96 kts 315°
2026-05-06 19:28 -23.16018 -46.94644 3124 ft 89 kts 247°
2026-05-06 19:29 -23.16427 -46.95085 2872 ft 84 kts 191°
2026-05-06 19:29 -23.16950 -46.94924 2639 ft 77 kts 154°
2026-05-06 19:29 -23.17429 -46.94691 2506 ft 73 kts 157°
2026-05-06 19:29 -23.17844 -46.94505 2489 ft 53 kts 155°
2026-05-06 19:30 -23.18055 -46.94405 2499 ft 16 kts 159°
2026-05-06 19:30 -23.18092 -46.94362 2501 ft 7 kts 82°
2026-05-06 19:30 -23.18066 -46.94301 2500 ft 8 kts 68°
2026-05-06 19:30 -23.18049 -46.94254 2500 ft 3 kts 48°
2026-05-06 19:31 -23.18042 -46.94259 2500 ft 1 kts 248°